Location: Ajisawe
(8.4333°N, 4.3833°E)
Time: 22:15:40
(UTC+00:00)

Vanguard 2 Rocket - Pass Details

Date: 27 April 2021
Orbit: 554 x 3326 km, 32.9° (Epoch: 16 May)

Event Time Altitude Azimuth Distance (km) Brightness Sun altitude
Rises 09:42:05 0° 257° (WSW) 4,339 10.1 60.6°
Reaches altitude 10° 09:44:38 10° 263° (W) 3,660 9.8 61.2°
Maximum altitude 09:54:22 50° 337° (NNW) 2,619 9.9 63.5°
Drops below altitude 10° 10:10:48 10° 48° (NE) 5,920 11.5 67.4°
Sets 10:16:19 0° 53° (NE) 7,167 11.7 68.7°
